Location: Township of Marena
(38.1747°N, 99.6798°W)
Time: 03:15:42
(UTC+00:00)

Intercosmos 24 - Pass Details

Date: 26 October 2020
Orbit: 498 x 2379 km, 82.6° (Epoch: 27 November)

Event Time Altitude Azimuth Distance (km) Brightness Sun altitude
Rises 11:16:46 0° 356° (N) 2,825 7.4 -20.7°
Reaches altitude 10° 11:19:06 10° 0° (N) 1,806 6.4 -20.2°
Maximum altitude 11:22:47 58° 81° (E) 587 4.2 -19.5°
Drops below altitude 10° 11:26:18 10° 162° (SSE) 1,720 6.6 -18.8°
Sets 11:28:28 0° 166° (SSE) 2,672 7.5 -18.4°
